Flag for Germany Weather past 2 weeks in Baden-Baden, Baden-Württemberg, Germany

Now
66 °F

Scattered clouds.


Feels Like: 66 °F
Forecast: 55 / 62 °F
Wind: 7 mph from Southwest

Location: Karlsruhe - Baden Wurttemberg

Current Time: Aug 30, 2014 at 11:25:36 AM

Latest Report: Aug 30, 2014 at 10:50 AM


Visibility: N/A

Pressure: 30.12 "Hg

Humidity: 78%

Dew point: 59 °F

Location of Baden-BadenLocation

Historic Weather in Baden-Baden — Graph

°F

Baden-Baden temperature yesterday

Maximum temperature yesterday: 75 °F (at 2:20 PM)
Minimum temperature yesterday: 61 °F (at 4:20 AM)
Average temperature yesterday: 68 °F

Past Weeks' High & Low Weather Summary

 TemperatureHumidityPressure
High75 °F (Aug 28, 3:20 PM)94% (Aug 15, 10:20 PM)30.15 "Hg (Aug 15, 10:20 PM)
Low45 °F (Aug 25, 4:50 AM)38% (Aug 19, 5:50 PM)29.68 "Hg (Aug 26, 4:50 AM)
Average61 °F71%29.99 "Hg
* Reported Aug 15 10:20 AM — Aug 30 10:20 AM, Baden-Baden, Weather by CustomWeather, © 2014

Note: Actual official high and low records may vary slightly from our data, if they occured in-between our weather recording intervals... More about our weather records

Advertising

Baden-Baden weather history for previous 24 hours

 ConditionsComfort  
Time TempWeatherWind HumidityBarometerVisibility
10:20 AM
Aug 30
66 °FScattered clouds.6 mph83%30.12 "HgN/A
9:50 AM64 °FPassing clouds.7 mph88%30.12 "HgN/A
9:20 AM63 °FSunny.6 mph94%30.12 "Hg10 mi
8:50 AM61 °FSunny.3 mph94%30.12 "Hg10 mi
8:20 AM59 °FSunny.3 mph94%30.12 "Hg10 mi
7:50 AM59 °FSunny.3 mph88%30.12 "Hg10 mi
7:20 AM57 °FLight fog.2 mph94%30.09 "Hg6 mi
6:50 AM57 °FLight fog.No wind94%30.09 "Hg6 mi
6:20 AM59 °FFog.1 mph94%30.09 "HgN/A
5:50 AM59 °FClear.3 mph94%30.09 "Hg10 mi
5:20 AM59 °FClear.2 mph94%30.09 "Hg10 mi
4:50 AM59 °FPassing clouds.5 mph88%30.09 "HgN/A
11:20 PM
Aug 29
63 °FPassing clouds.3 mph88%30.07 "HgN/A
9:20 PM63 °FSprinkles. Partly cloudy.7 mph88%30.04 "HgN/A
8:50 PM63 °FScattered showers. Broken clouds.7 mph88%30.04 "HgN/A
8:20 PM63 °FSprinkles. Broken clouds.8 mph88%30.04 "HgN/A
7:50 PM66 °FThundershowers. Broken clouds.10 mph88%30.04 "HgN/A
7:20 PM66 °FSprinkles. Broken clouds.6 mph83%30.04 "Hg6 mi
6:53 PM70 °FRain showers. Broken clouds.2 mph73%30.01 "Hg6 mi
6:20 PM72 °FScattered showers. Broken clouds.9 mph65%30.01 "HgN/A
5:50 PM73 °FScattered showers. Broken clouds.7 mph61%30.01 "HgN/A
5:20 PM73 °FScattered showers. Broken clouds.8 mph61%30.01 "HgN/A
4:50 PM75 °FScattered showers. Broken clouds.3 mph54%30.01 "HgN/A
4:20 PM73 °FScattered showers. Broken clouds.6 mph61%30.04 "HgN/A
3:50 PM73 °FScattered showers. Scattered clouds.5 mph57%30.04 "HgN/A
3:20 PM75 °FScattered showers. Scattered clouds.5 mph57%30.04 "Hg6 mi
2:50 PM73 °FScattered clouds.5 mph57%30.04 "HgN/A
2:20 PM75 °FPartly sunny.6 mph54%30.04 "HgN/A
1:50 PM73 °FPartly sunny.6 mph57%30.04 "HgN/A
1:20 PM73 °FScattered clouds.3 mph57%30.04 "HgN/A
12:50 PM73 °FPassing clouds.3 mph61%30.04 "HgN/A
12:20 PM70 °FPassing clouds.2 mph69%30.07 "HgN/A
11:50 AM70 °FPassing clouds.6 mph69%30.07 "HgN/A
11:20 AM68 °FPassing clouds.6 mph69%30.07 "HgN/A
Weather by CustomWeather, © 2014

See weather overviewHow to use our weather pages